Whitefield, NH

10:50 PM EDT on August 18, 2017 (GMT -0400)
Mount Washington Regional

Weather History for KHIE - May, 2013

Change the Weather History Date:

Thursday, May 16, 2013

  Actual Average Record
Temperature  
Mean Temperature 58 °F -  
Max Temperature 73 °F 62 °F 82 °F (1998)
Min Temperature 44 °F 34 °F 27 °F (2000)
Degree Days  
Heating Degree Days 7    
Growing Degree Days 8 (Base 50)    
Moisture  
Dew Point 42 °F    
Average Humidity 72    
Maximum Humidity 93    
Minimum Humidity 24    
Precipitation  
Precipitation 0.01 in - - ()
Sea Level Pressure  
Sea Level Pressure 29.65 in    
Wind  
Wind Speed 4 mph (West)    
Max Wind Speed 20 mph    
Max Gust Speed 33 mph    
Visibility 6 miles    
Events Fog    
Averages and records for this station are not official NWS values.
T = Trace of Precipitation, MM = Missing Value Source: NWS Daily Summary

Daily Weather History Graph

Daily Weather History Graph

Search for Another Location

Airport or City:

Trip Planner

Search our weather history database for the weather conditions in past years. The results will help you decide how hot, cold, wet, or windy it might be!

Date:

Astronomy

May. 16, 2013 Rise Set
Actual Time 5:17 AM EDT 8:08 PM EDT
Civil Twilight 4:43 AM EDT 8:42 PM EDT
Nautical Twilight 4:01 AM EDT 9:25 PM EDT
Astronomical Twilight 3:10 AM EDT 10:15 PM EDT
Moon 10:52 AM EDT (5/16) 12:23 AM EDT (5/16)
Length of Visible Light 15h 58m
Length of Day
14h 50m
Waxing Crescent, 35% of the Moon is Illuminated
May 16
Waxing Crescent
May 18
First Quarter
May 25
Full
May 31
Last Quarter
Jun 8
New

Hourly Weather History & Observations

Time (EDT) Temp. Windchill Dew Point Humidity Pressure Visibility Wind Dir Wind Speed Gust Speed Precip Events Conditions
12:32 AM 48.2 °F - 46.4 °F 93% 29.62 in 6.0 mi SSW 3.5 mph - N/A   Mostly Cloudy
12:52 AM 46.0 °F - 44.1 °F 93% 29.64 in 3.0 mi Calm Calm - N/A   Scattered Clouds
12:54 AM 44.6 °F - 42.8 °F 93% 29.63 in 1.8 mi Calm Calm - N/A   Mostly Cloudy
1:03 AM 46.4 °F 45.2 °F 42.8 °F 87% 29.63 in 3.0 mi South 3.5 mph - N/A   Mostly Cloudy
1:23 AM 46.4 °F - 44.6 °F 93% 29.63 in 6.0 mi Calm Calm - N/A   Overcast
1:52 AM 48.9 °F - 46.0 °F 90% 29.63 in 7.0 mi SSW 3.5 mph - N/A   Overcast
2:18 AM 48.2 °F - 46.4 °F 93% 29.63 in 6.0 mi Calm Calm - N/A   Overcast
2:48 AM 50.0 °F - 46.4 °F 87% 29.63 in 6.0 mi Calm Calm - N/A   Overcast
2:52 AM 50.0 °F - 46.9 °F 89% 29.64 in 6.0 mi Calm Calm - N/A   Overcast
3:11 AM 48.2 °F - 46.4 °F 93% 29.63 in 5.0 mi Calm Calm - N/A   Overcast
3:43 AM 50.0 °F - 46.4 °F 87% 29.61 in 5.0 mi Calm Calm - N/A   Mostly Cloudy
3:52 AM 48.0 °F - 46.0 °F 93% 29.62 in 4.0 mi South 3.5 mph - N/A   Scattered Clouds
4:38 AM 46.4 °F - 44.6 °F 93% 29.60 in 1.8 mi Calm Calm - 0.01 in   Clear
4:43 AM 46.4 °F - 44.6 °F 93% 29.60 in 1.0 mi Calm Calm - 0.01 in   Mist
4:52 AM 45.0 °F - 43.0 °F 93% 29.62 in 0.5 mi Calm Calm - 0.01 in Fog Fog
5:28 AM 44.6 °F - 42.8 °F 93% 29.62 in 0.2 mi Calm Calm - N/A Fog Fog
6:04 AM 44.6 °F - 42.8 °F 93% 29.63 in 0.2 mi Calm Calm - N/A Fog Fog
6:52 AM 48.0 °F - 46.0 °F 93% 29.65 in 1.0 mi Calm Calm - 0.00 in   Mist
6:56 AM 48.2 °F - 46.4 °F 93% 29.64 in 2.5 mi Calm Calm - N/A   Mostly Cloudy
7:03 AM 48.2 °F - 46.4 °F 93% 29.64 in 2.5 mi Calm Calm - N/A   Scattered Clouds
7:30 AM 51.8 °F - 48.2 °F 88% 29.64 in 7.0 mi Calm Calm - N/A   Clear
7:52 AM 53.1 °F - 48.9 °F 86% 29.65 in 10.0 mi Calm Calm - N/A   Clear
8:52 AM 59.0 °F - 45.0 °F 60% 29.65 in 10.0 mi WSW 6.9 mph - N/A   Clear
9:52 AM 61.0 °F - 43.0 °F 52% 29.64 in 10.0 mi SW 8.1 mph - N/A   Clear
10:52 AM 64.0 °F - 41.0 °F 43% 29.64 in 10.0 mi West 10.4 mph 21.9 mph N/A   Scattered Clouds
11:52 AM 66.9 °F - 39.0 °F 36% 29.62 in 10.0 mi West 13.8 mph 28.8 mph N/A   Scattered Clouds
12:52 PM 68.0 °F - 32.0 °F 26% 29.62 in 10.0 mi West 17.3 mph 28.8 mph N/A   Partly Cloudy
1:52 PM 72.0 °F - 33.1 °F 24% 29.59 in 10.0 mi West 19.6 mph 33.4 mph N/A   Scattered Clouds
2:52 PM 70.0 °F - 30.9 °F 24% 29.60 in 10.0 mi WNW 15.0 mph 28.8 mph N/A   Mostly Cloudy
3:52 PM 69.1 °F - 33.1 °F 26% 29.61 in 10.0 mi WNW 17.3 mph 29.9 mph N/A   Mostly Cloudy
4:52 PM 64.9 °F - 37.0 °F 36% 29.65 in 10.0 mi NW 11.5 mph - N/A   Overcast
5:52 PM 62.1 °F - 39.0 °F 43% 29.69 in 10.0 mi NW 11.5 mph - N/A   Overcast
6:52 PM 57.9 °F - 39.0 °F 49% 29.74 in 10.0 mi NW 15.0 mph 19.6 mph N/A   Overcast
7:52 PM 55.0 °F - 37.9 °F 53% 29.77 in 10.0 mi NNW 9.2 mph - N/A   Overcast
8:52 PM 54.0 °F - 39.0 °F 57% 29.81 in 10.0 mi NW 6.9 mph - N/A   Overcast
10:52 PM 52.0 °F - 39.0 °F 61% 29.84 in 10.0 mi NNW 4.6 mph - N/A   Overcast
11:52 PM 51.1 °F - 37.9 °F 61% 29.85 in 10.0 mi NW 5.8 mph - N/A   Overcast